2025-013D (62732 NORAD) Tracking and Keplerian Element Data

This shows tracking and keplerian element data for the satellite.

Feedback or suggestion? Click here.




ElementValue
Catalog62732
Name2025-013D
Epoch Orbit217
Epoch Day35.18325802
Epoch Year2025
RAAN202.1619
Inclination97.6097
Eccentricity0.0013848
Argument of Perigee234.1183
Mean Anonmoly125.8761
Mean Motion15.0967098
Decay Rate9.051E-05
L11 62732U 25013D 25035.18325802 .00009051 00000+0 56460-3 0 9993
L22 62732 97.6097 202.1619 0013848 234.1183 125.8761 15.09670980 2172



Live tracking and technical data element details for 2025-013D (NORAD 62732). 2025-013D can be tracked NOW for your location showing map with azimuth and elevation plus other details from your city location.







IsCatalogInMostPopularTable: catalog: 62732, numindb: 2
Update: records affected: 1



GetName: 62732 2025-013D

Hit Count: updated at: Sun, 09 Feb 2025 14:27:18 GMT